DW1234 Weather Reports


time (UTC)temp
C
wind
direction
speed
KPH
gust
KPH
rain 1hr
cm
rain 24hr
cm
rain mn
cm
humidity
%
barometer
mb
20260505040004 13 348 22.5 38.6 0.00 0.00 0.00 42 1008.6
20260505035749 13 11 24.1 38.6 0.00 0.00 0.00 42 1009.6
20260505035230 13 10 29.0 38.6 0.00 0.00 0.00 42 1009.5
20260505034737 13 347 25.7 40.2 0.00 0.00 0.00 42 1009.5
20260505034515 13 351 25.7 41.8 0.00 0.00 0.00 42 1008.4
20260505034223 13 360 24.1 41.8 0.00 0.00 0.00 42 1009.5
20260505033733 13 348 30.6 41.8 0.00 0.00 0.00 42 1009.3
20260505033245 13 14 24.1 49.9 0.00 0.00 0.00 42 1009.0
20260505033012 13 355 27.4 49.9 0.00 0.00 0.00 42 1007.9
20260505032731 13 355 29.0 51.5 0.00 0.00 0.00 41 1008.9
20260505032241 13 20 35.4 51.5 0.00 0.00 0.00 40 1008.8
20260505031725 13 5 32.2 45.1 0.00 0.00 0.00 41 1009.0
20260505031518 13 15 29.0 48.3 0.00 0.00 0.00 41 1008.0
20260505031257 13 355 30.6 48.3 0.00 0.00 0.00 41 1009.0
20260505030740 13 355 35.4 54.7 0.00 0.00 0.00 41 1008.8
20260505030253 13 349 32.2 54.7 0.00 0.00 0.00 41 1008.7
20260505030038 13 5 38.6 56.3 0.00 0.00 0.00 41 1007.6
20260505025745 13 355 40.2 56.3 0.00 0.00 0.00 41 1008.6
20260505025255 14 14 35.4 56.3 0.00 0.00 0.00 42 1008.4
20260505024746 14 345 29.0 46.7 0.00 0.00 0.00 42 1008.7
20260505024539 13 32 25.7 46.7 0.00 0.00 0.00 42 1007.5
20260505024237 14 5 30.6 48.3 0.00 0.00 0.00 41 1008.5
20260505023742 14 13 35.4 48.3 0.00 0.00 0.00 41 1008.2
20260505023224 14 5 30.6 49.9 0.00 0.00 0.00 41 1008.1
20260505023036 14 346 35.4 49.9 0.00 0.00 0.00 41 1006.7
20260505022736 14 351 40.2 49.9 0.00 0.00 0.00 41 1007.7
20260505022246 14 5 32.2 53.1 0.00 0.00 0.00 41 1007.8
20260505021737 15 355 29.0 57.9 0.00 0.00 0.00 41 1007.7
20260505021515 14 355 43.5 57.9 0.00 0.00 0.00 41 1006.5
20260505021251 15 348 37.0 54.7 0.00 0.00 0.00 41 1007.3
20260505020739 15 26 41.8 54.7 0.00 0.00 0.00 41 1007.5
20260505020246 15 332 35.4 48.3 0.00 0.00 0.00 41 1007.6
20260505020105 15 355 29.0 48.3 0.00 0.00 0.00 41 1006.5
20260505015730 15 360 37.0 59.5 0.00 0.00 0.00 41 1007.7
20260505015242 15 5 32.2 59.5 0.00 0.00 0.00 40 1007.4
20260505014727 16 17 40.2 69.2 0.00 0.00 0.00 39 1007.0
20260505014508 15 355 46.7 69.2 0.00 0.00 0.00 38 1005.9
20260505014240 16 19 53.1 69.2 0.00 0.00 0.00 38 1006.8
20260505013721 16 351 35.4 53.1 0.00 0.00 0.00 38 1006.8
20260505013235 16 15 32.2 53.1 0.00 0.00 0.00 37 1006.8
20260505013007 16 355 27.4 53.1 0.00 0.00 0.00 37 1005.5
20260505012759 16 355 29.0 53.1 0.00 0.00 0.00 37 1006.8
20260505012249 17 5 35.4 53.1 0.00 0.00 0.00 36 1006.7
20260505011732 17 344 33.8 53.1 0.00 0.00 0.00 35 1006.6
20260505011555 17 13 29.0 53.1 0.00 0.00 0.00 35 1005.5
20260505011246 17 346 38.6 53.1 0.00 0.00 0.00 34 1006.6
20260505010728 17 360 32.2 62.8 0.00 0.00 0.00 34 1006.6
20260505010240 18 355 38.6 62.8 0.00 0.00 0.00 33 1006.4
20260505010109 17 5 45.1 62.8 0.00 0.00 0.00 33 1005.1
20260505005725 18 335 27.4 46.7 0.00 0.00 0.00 34 1006.3
20260505005236 18 9 32.2 48.3 0.00 0.00 0.00 33 1006.1
20260505004742 18 327 32.2 48.3 0.00 0.00 0.00 33 1006.1
20260505004556 18 350 29.0 46.7 0.00 0.00 0.00 32 1004.9
20260505004226 19 339 25.7 49.9 0.00 0.00 0.00 33 1006.1
20260505003736 19 5 32.2 51.5 0.00 0.00 0.00 32 1005.9
20260505003249 20 44 40.2 48.3 0.00 0.00 0.00 31 1005.7
20260505003020 20 355 33.8 48.3 0.00 0.00 0.00 31 1004.4
20260505002731 20 343 24.1 53.1 0.00 0.00 0.00 32 1005.8
20260505002243 20 351 38.6 53.1 0.00 0.00 0.00 31 1005.7
20260505001728 20 340 32.2 49.9 0.00 0.00 0.00 32 1005.4
20260505001514 20 355 37.0 49.9 0.00 0.00 0.00 32 1004.3
20260505001242 20 16 33.8 49.9 0.00 0.00 0.00 32 1005.4
20260505000724 21 355 33.8 48.3 0.00 0.00 0.00 31 1005.6
20260505000233 21 333 32.2 45.1 0.00 0.00 0.00 31 1005.6
20260505000016 21 11 27.4 45.1 0.00 0.00 0.00 31 1004.2
20260504235801 21 350 27.4 53.1 0.00 0.00 0.00 30 1005.6
20260504235224 21 5 35.4 54.7 0.00 0.00 0.00 29 1005.5
20260504234737 22 360 33.8 54.7 0.00 0.00 0.00 29 1005.3
20260504234552 22 12 27.4 43.5 0.00 0.00 0.00 30 1004.1
20260504234309 22 360 27.4 43.5 0.00 0.00 0.00 30 1005.4
20260504233729 22 9 27.4 46.7 0.00 0.00 0.00 31 1005.4
20260504233237 22 317 25.7 46.7 0.00 0.00 0.00 30 1005.2
20260504233030 22 355 29.0 46.7 0.00 0.00 0.00 30 1003.8
20260504232748 22 336 27.4 38.6 0.00 0.00 0.00 30 1005.1
20260504232237 22 355 27.4 41.8 0.00 0.00 0.00 29 1005.0
20260504231747 22 360 30.6 43.5 0.00 0.00 0.00 28 1005.0
20260504231515 22 15 27.4 43.5 0.00 0.00 0.00 28 1003.7
20260504231231 22 355 30.6 43.5 0.00 0.00 0.00 29 1004.9
20260504230742 23 355 29.0 48.3 0.00 0.00 0.00 29 1004.8
20260504230253 23 344 29.0 48.3 0.00 0.00 0.00 29 1004.7
20260504230025 23 327 32.2 48.3 0.00 0.00 0.00 29 1003.3
20260504225800 23 5 27.4 45.1 0.00 0.00 0.00 29 1004.6
20260504225224 23 334 30.6 43.5 0.00 0.00 0.00 29 1004.4
20260504224735 23 5 22.5 41.8 0.00 0.00 0.00 30 1004.4
20260504224509 23 349 29.0 41.8 0.00 0.00 0.00 29 1002.9
20260504224309 23 338 27.4 48.3 0.00 0.00 0.00 29 1004.2
20260504223730 24 348 27.4 48.3 0.00 0.00 0.00 29 1004.1
20260504223243 24 323 32.2 46.7 0.00 0.00 0.00 28 1003.9
20260504223043 24 338 32.2 46.7 0.00 0.00 0.00 28 1002.5
20260504222726 25 351 25.7 43.5 0.00 0.00 0.00 28 1003.8
20260504222234 25 360 32.2 43.5 0.00 0.00 0.00 27 1003.7
20260504221745 25 338 29.0 41.8 0.00 0.00 0.00 28 1003.6
20260504221545 25 333 29.0 41.8 0.00 0.00 0.00 28 1002.3
20260504221229 25 346 22.5 41.8 0.00 0.00 0.00 29 1003.4
20260504220739 25 10 30.6 41.8 0.00 0.00 0.00 28 1003.3
20260504220224 25 5 25.7 38.6 0.00 0.00 0.00 28 1003.2
20260504220051 25 347 24.1 38.6 0.00 0.00 0.00 28 1001.9
20260504215736 25 5 24.1 38.6 0.00 0.00 0.00 29 1003.3
20260504215248 26 24 24.1 43.5 0.00 0.00 0.00 31 1003.2
20260504214733 26 16 25.7 43.5 0.00 0.00 0.00 29 1003.4
20260504214559 26 335 30.6 43.5 0.00 0.00 0.00 29 1001.9
20260504214500 26 305 27.4 43.5 0.00 0.00 0.00 28 1001.9
20260504214243 26 333 22.5 37.0 0.00 0.00 0.00 31 1003.3
20260504213725 26 360 24.1 38.6 0.00 0.00 0.00 32 1003.2
20260504213239 26 355 25.7 38.6 0.00 0.00 0.00 30 1003.2
20260504213011 26 333 29.0 38.6 0.00 0.00 0.00 29 1001.9
20260504212749 26 355 22.5 38.6 0.00 0.00 0.00 31 1003.2
20260504212233 26 30 22.5 37.0 0.00 0.00 0.00 33 1003.2
20260504211746 26 338 27.4 40.2 0.00 0.00 0.00 31 1003.1
20260504211557 26 5 25.7 40.2 0.00 0.00 0.00 31 1001.7
20260504211237 26 350 27.4 40.2 0.00 0.00 0.00 32 1003.1
20260504210746 26 29 22.5 41.8 0.00 0.00 0.00 32 1003.0
20260504210238 26 12 30.6 41.8 0.00 0.00 0.00 31 1003.0
20260504210054 26 340 29.0 40.2 0.00 0.00 0.00 33 1001.7
20260504205721 27 351 17.7 30.6 0.00 0.00 0.00 34 1003.0
20260504205232 27 351 22.5 41.8 0.00 0.00 0.00 32 1002.9
20260504204748 27 360 27.4 41.8 0.00 0.00 0.00 33 1002.9
20260504204559 26 340 24.1 37.0 0.00 0.00 0.00 33 1001.5
20260504204232 27 355 22.5 35.4 0.00 0.00 0.00 32 1003.0
20260504203742 27 327 24.1 35.4 0.00 0.00 0.00 32 1002.9
20260504203226 27 355 22.5 33.8 0.00 0.00 0.00 30 1002.8
20260504203106 27 15 24.1 33.8 0.00 0.00 0.00 34 1001.5
20260504202752 27 321 25.7 38.6 0.00 0.00 0.00 32 1002.7
20260504202244 27 336 25.7 38.6 0.00 0.00 0.00 32 1002.9
20260504201728 27 346 25.7 35.4 0.00 0.00 0.00 32 1002.9
20260504201541 27 331 16.1 35.4 0.00 0.00 0.00 31 1001.5
20260504201241 27 321 22.5 37.0 0.00 0.00 0.00 31 1003.1
20260504200724 27 350 24.1 38.6 0.00 0.00 0.00 31 1002.9
20260504200235 27 304 20.9 38.6 0.00 0.00 0.00 31 1002.9
20260504200047 27 360 25.7 38.6 0.00 0.00 0.00 32 1001.5
20260504195747 27 351 24.1 40.2 0.00 0.00 0.00 31 1002.8
20260504195228 28 360 20.9 41.8 0.00 0.00 0.00 33 1002.7
20260504194732 27 319 25.7 33.8 0.00 0.00 0.00 33 1002.8
20260504194600 27 328 20.9 35.4 0.00 0.00 0.00 32 1001.6
20260504194246 28 360 22.5 37.0 0.00 0.00 0.00 31 1002.8
20260504193736 28 346 25.7 37.0 0.00 0.00 0.00 31 1002.7
20260504193246 28 351 19.3 40.2 0.00 0.00 0.00 30 1002.6
20260504193036 28 338 24.1 40.2 0.00 0.00 0.00 30 1001.3
20260504192728 28 319 20.9 32.2 0.00 0.00 0.00 30 1002.5
20260504192239 28 323 12.9 37.0 0.00 0.00 0.00 28 1002.6
20260504191721 29 291 22.5 37.0 0.00 0.00 0.00 28 1002.5
20260504191545 28 308 19.3 33.8 0.00 0.00 0.00 28 1001.3
20260504191231 29 319 19.3 38.6 0.00 0.00 0.00 28 1002.5
20260504190741 28 300 22.5 38.6 0.00 0.00 0.00 28 1002.5
20260504190224 28 321 14.5 33.8 0.00 0.00 0.00 30 1002.4
20260504190108 28 283 20.9 40.2 0.00 0.00 0.00 29 1001.2
20260504185736 28 317 22.5 40.2 0.00 0.00 0.00 28 1002.4
20260504185248 28 318 24.1 41.8 0.00 0.00 0.00 26 1002.3
20260504184739 28 9 20.9 35.4 0.00 0.00 0.00 27 1002.3
20260504184535 28 315 20.9 35.4 0.00 0.00 0.00 28 1001.2
20260504184224 28 313 20.9 32.2 0.00 0.00 0.00 29 1002.4
20260504183733 28 285 19.3 33.8 0.00 0.00 0.00 29 1002.4
20260504183241 28 290 22.5 33.8 0.00 0.00 0.00 29 1002.3
20260504183036 28 303 24.1 37.0 0.00 0.00 0.00 29 1001.2
20260504182722 28 318 20.9 37.0 0.00 0.00 0.00 30 1002.5
20260504182234 28 304 27.4 40.2 0.00 0.00 0.00 28 1002.6
20260504181746 28 303 24.1 40.2 0.00 0.00 0.00 28 1002.6
20260504181524 27 301 20.9 40.2 0.00 0.00 0.00 30 1001.4
20260504181229 28 332 25.7 40.2 0.00 0.00 0.00 29 1002.6
20260504180739 28 294 22.5 35.4 0.00 0.00 0.00 27 1002.6
20260504180222 28 288 22.5 35.4 0.00 0.00 0.00 29 1002.7
20260504180029 28 294 24.1 35.4 0.00 0.00 0.00 28 1001.5
20260504175730 28 313 20.9 35.4 0.00 0.00 0.00 31 1002.6
20260504175240 28 316 24.1 38.6 0.00 0.00 0.00 32 1002.7
20260504174723 28 332 27.4 38.6 0.00 0.00 0.00 29 1002.8
20260504174529 28 309 22.5 38.6 0.00 0.00 0.00 31 1001.6
20260504174236 27 340 24.1 33.8 0.00 0.00 0.00 32 1002.7
20260504173747 27 339 14.5 25.7 0.00 0.00 0.00 32 1002.8
20260504173230 27 319 17.7 30.6 0.00 0.00 0.00 32 1002.9
20260504173027 27 338 17.7 37.0 0.00 0.00 0.00 33 1001.7
20260504172742 27 296 16.1 37.0 0.00 0.00 0.00 33 1003.0
20260504172225 27 277 16.1 24.1 0.00 0.00 0.00 32 1003.0
20260504171733 27 292 16.1 33.8 0.00 0.00 0.00 33 1003.0
20260504171535 27 314 14.5 33.8 0.00 0.00 0.00 34 1001.9
20260504171245 27 292 22.5 33.8 0.00 0.00 0.00 34 1003.2
20260504170727 26 319 16.1 30.6 0.00 0.00 0.00 35 1003.3
20260504170238 26 345 16.1 30.6 0.00 0.00 0.00 37 1003.2
20260504160228 24 279 12.9 20.9 0.00 0.00 0.00 42 1003.2
20260504150741 21 278 9.7 17.7 0.00 0.00 0.00 45 1003.3
20260504150225 21 307 11.3 16.1 0.00 0.00 0.00 43 1003.2
20260504141249 18 303 11.3 19.3 0.00 0.00 0.00 53 1003.5
20260504140731 18 342 11.3 22.5 0.00 0.00 0.00 55 1003.6
20260504140242 18 296 16.1 22.5 0.00 0.00 0.00 53 1003.7
20260504130740 16 325 3.2 6.4 0.00 0.00 0.00 58 1003.3
20260504130222 15 256 1.6 3.2 0.00 0.00 0.00 60 1003.2
20260504120252 10 355 3.2 4.8 0.00 0.00 0.00 68 1003.2
20260504110243 11 171 3.2 4.8 0.00 0.00 0.00 62 1003.0
20260504100242 12 165 8.0 11.3 0.00 0.00 0.00 59 1003.3
20260504081801 12 175 4.8 9.7 0.00 0.00 0.00 57 1004.6
20260504081535 12 179 6.4 11.3 0.00 0.00 0.00 57 1003.6
20260504081224 12 163 6.4 11.3 0.00 0.00 0.00 57 1004.7
20260504080736 12 169 8.0 11.3 0.00 0.00 0.00 57 1004.8
20260504080246 12 175 6.4 9.7 0.00 0.00 0.00 57 1004.8
20260504070236 13 169 8.0 9.7 0.00 0.00 0.00 56 1005.9
20260504060235 13 169 4.8 8.0 0.00 0.00 0.00 56 1006.7
20260504050745 15 169 6.4 9.7 0.00 0.00 0.00 50 1007.5
20260504050226 15 175 8.0 9.7 0.00 0.00 0.00 50 1007.5
20260504050012 15 170 6.4 9.7 0.00 0.00 0.00 50 1006.5
20260504045738 16 177 8.0 9.7 0.00 0.00 0.00 50 1007.6
20260504045222 16 171 8.0 11.3 0.00 0.00 0.00 50 1007.6
20260504044749 16 173 8.0 9.7 0.00 0.00 0.00 51 1007.6
20260504044514 16 158 6.4 9.7 0.00 0.00 0.00 51 1006.7
20260504044235 16 174 6.4 9.7 0.00 0.00 0.00 51 1007.7
20260504043805 17 165 6.4 8.0 0.00 0.00 0.00 50 1007.7
20260504043226 17 163 6.4 8.0 0.00 0.00 0.00 49 1007.8
20260504043106 16 178 4.8 8.0 0.00 0.00 0.00 49 1007.0
20260504042739 17 175 4.8 8.0 0.00 0.00 0.00 48 1007.9
20260504042221 17 173 8.0 9.7 0.00 0.00 0.00 46 1007.8
20260504041734 17 178 4.8 8.0 0.00 0.00 0.00 44 1007.9
20260504041554 17 184 4.8 9.7 0.00 0.00 0.00 44 1007.0
20260504041243 17 173 4.8 9.7 0.00 0.00 0.00 43 1008.0
20260504040724 17 188 6.4 9.7 0.00 0.00 0.00 42 1007.9
20260504040256 18 179 4.8 8.0 0.00 0.00 0.00 40 1008.0